Wind_Speed
19 20 21 20 19 18 19 19 20 21 21 21 22 22 22 23 24 25 27 27 27 28 29 29 29 30 30 30 30 30 30 29 29 30 30 30 29 29 29 29 29 30 29
20 20 20 19 18 19 20 20 20 20 19 20 21 22 22 22 23 24 26 27 28 28 28 29 29 30 30 30 30 30 30 29 30 30 29 29 28 29 29 28 28 29 28
20 20 20 19 19 19 19 20 20 20 20 19 20 21 22 23 24 25 26 26 27 27 28 29 29 30 30 29 30 30 30 30 29 29 28 28 27 27 28 28 28 28 28
20 19 19 19 18 18 18 19 20 20 19 19 20 21 22 23 24 25 26 26 26 27 28 29 29 30 30 29 29 29 30 30 29 29 28 28 27 27 27 28 29 28 28
18 17 17 17 18 18 18 19 19 19 20 19 20 21 22 23 24 24 25 25 26 26 27 28 28 28 28 28 29 29 30 29 28 27 27 28 28 27 26 27 27 28 28
18 18 18 18 18 19 19 20 20 20 19 19 20 21 23 24 24 24 25 25 26 26 27 27 27 27 27 27 28 27 27 27 26 27 27 27 26 26 26 27 27 27 27
18 18 17 18 18 20 20 20 19 19 19 20 21 22 23 23 23 24 25 25 26 26 26 26 27 26 26 25 26 25 25 26 26 25 24 24 25 26 26 26 26 26 26
17 17 17 18 18 19 19 19 18 19 19 20 21 23 23 23 24 25 25 25 25 25 25 26 26 25 24 24 24 24 23 23 24 24 24 24 25 26 26 25 25 25 26
18 18 18 19 18 18 18 18 17 19 20 21 22 22 23 24 24 25 24 25 25 25 25 25 25 24 23 23 22 23 23 23 23 23 24 24 24 24 24 24 25 25 25
17 16 17 18 18 17 17 18 18 18 20 21 22 22 23 24 24 24 24 24 24 25 25 25 24 24 23 22 21 21 21 22 22 22 22 23 23 23 24 24 25 26 26
17 17 18 18 18 17 18 18 18 19 20 21 21 22 23 23 24 24 24 24 24 24 24 24 24 23 23 22 21 21 21 21 21 21 21 22 22 22 22 23 24 25 26
17 17 17 17 17 17 18 18 18 19 20 21 22 23 24 23 23 24 24 24 24 23 23 23 23 23 23 22 22 21 21 21 21 21 21 21 22 22 21 21 22 24 24
17 17 17 17 17 17 17 18 19 19 20 21 22 22 23 22 22 23 23 23 22 21 21 22 22 22 22 22 22 20 20 20 20 20 20 20 20 20 20 21 21 22 23
18 17 16 17 16 16 16 18 19 20 21 21 21 21 21 21 21 21 21 21 20 20 20 20 20 20 20 20 20 20 19 19 18 18 18 19 18 19 20 20 20 21 22
17 17 17 16 16 16 17 17 18 19 19 19 19 20 20 20 20 20 20 20 19 19 18 18 18 19 19 19 19 19 19 19 18 18 18 18 18 18 19 19 20 20 21
18 18 18 17 17 16 16 17 17 19 19 18 18 18 19 19 18 18 18 18 17 17 17 17 18 18 19 19 19 19 19 18 18 18 18 18 18 18 19 19 19 19 18
19 18 17 17 17 16 16 17 17 18 18 18 17 17 18 17 17 18 17 16 16 17 17 17 18 18 19 19 19 19 19 19 18 18 17 17 17 17 17 17 16 16 16
19 18 17 16 15 15 15 16 16 16 16 17 17 17 17 16 16 16 16 15 16 16 16 17 18 18 18 19 19 19 19 19 18 18 17 17 17 16 16 16 16 16 16
16 15 15 15 14 14 14 15 15 15 15 16 15 15 15 15 14 15 15 15 16 16 16 17 17 18 19 19 19 19 19 19 19 18 17 17 17 17 16 17 16 16 17
15 14 14 13 13 13 13 13 14 14 15 15 14 14 14 14 14 14 14 15 16 16 16 16 17 18 19 19 19 20 20 20 19 18 18 18 18 18 17 17 17 17 17
14 13 13 12 12 12 12 12 12 13 13 13 13 13 13 13 14 13 14 15 15 16 16 17 18 18 19 19 19 20 20 20 19 18 18 19 19 19 19 18 18 18 18
12 11 11 11 11 11 11 11 11 11 12 12 12 12 13 13 13 13 13 14 15 16 16 18 18 19 19 18 19 20 20 20 19 18 18 19 19 19 19 18 18 17 17
10 10 10 10 9 9 9 9 10 10 11 11 11 12 12 12 12 12 13 14 16 16 17 18 18 18 18 19 19 21 21 21 20 19 19 19 19 19 19 19 18 17 16
9 9 9 8 8 7 8 8 9 9 10 10 11 11 11 11 12 13 14 14 15 17 18 18 18 18 19 20 21 21 21 21 20 20 20 20 20 20 19 19 19 18 17
8 8 7 7 7 6 7 8 8 8 8 9 10 10 10 11 12 13 13 14 16 18 18 18 19 20 20 21 21 21 21 22 21 22 22 21 21 21 20 20 20 20 20
7 7 6 6 6 6 7 7 7 7 8 9 9 9 10 11 12 13 14 15 16 18 19 20 20 21 21 21 21 22 23 23 24 23 23 23 23 22 21 21 21 21 21
Wind_Direction
277 280 283 282 285 290 290 286 286 288 291 291 291 293 294 293 295 295 294 293 293 293 292 291 291 291 289 289 287 286 286 284 282 281 279 276 273 271 269 269 268 266 263
277 284 284 282 286 289 286 285 286 288 289 290 292 294 297 298 300 299 298 297 295 294 293 292 291 290 290 289 288 287 286 285 281 279 278 276 275 274 270 269 267 264 261
286 285 287 288 287 286 285 284 285 285 286 289 294 298 299 301 301 301 302 301 299 297 295 294 292 291 290 288 287 286 285 283 282 279 278 276 275 272 271 271 268 265 263
286 288 288 287 286 285 283 283 284 286 287 293 298 300 300 302 302 304 305 304 302 301 299 296 294 292 291 290 288 285 283 282 281 279 278 276 274 272 269 268 268 265 262
285 288 290 286 286 285 283 285 288 290 292 295 298 299 300 301 303 305 305 306 307 307 305 301 298 296 295 293 291 288 285 281 279 277 276 275 272 272 269 266 265 264 263
286 289 289 287 286 287 288 289 290 291 294 297 300 302 301 302 305 308 308 308 309 308 306 305 303 301 297 294 294 293 289 284 281 278 275 274 272 270 269 264 263 262 262
291 290 289 287 288 289 292 293 288 288 292 298 301 302 303 304 306 308 307 307 308 308 309 308 308 307 303 300 297 294 290 287 285 282 277 274 272 269 268 264 263 261 260
292 289 289 289 290 293 294 293 290 289 292 298 302 304 305 306 307 307 307 308 309 309 310 311 310 309 307 303 300 296 295 292 289 285 281 277 274 270 268 265 262 261 260
293 289 287 290 289 291 294 291 292 293 295 299 302 304 305 307 308 309 307 310 310 310 310 311 311 309 308 306 302 301 299 296 293 289 286 283 279 273 270 267 265 264 262
296 291 291 293 294 293 296 295 294 296 298 301 303 304 304 306 309 311 311 311 312 311 311 312 312 311 310 311 308 306 303 299 297 294 290 289 286 280 276 272 269 268 267
296 295 296 296 295 295 297 298 298 299 301 303 305 304 304 306 308 310 312 312 313 312 312 312 313 312 312 311 309 307 306 304 301 297 292 288 287 283 279 276 274 272 270
296 296 295 294 296 297 298 298 298 300 304 306 306 306 304 304 307 310 311 311 312 312 312 313 313 312 312 312 311 308 307 306 305 302 297 292 287 283 281 280 277 276 274
296 296 295 296 298 297 297 298 300 303 305 306 307 308 306 306 309 311 311 311 312 314 316 317 317 316 315 316 315 314 312 311 308 305 302 298 292 286 285 283 280 280 278
296 295 296 295 296 296 297 301 303 305 307 309 310 312 311 311 310 311 312 312 314 316 317 319 322 323 322 321 320 319 318 317 314 310 308 305 298 291 289 287 284 283 282
296 294 294 293 295 296 298 303 307 308 311 313 313 314 314 314 313 314 314 315 316 318 319 321 324 326 326 325 324 322 321 318 317 316 314 310 304 300 296 291 287 285 283
294 294 292 291 293 296 299 306 308 309 311 313 314 315 317 317 318 320 321 320 320 321 322 324 325 325 327 328 326 322 321 319 318 317 317 316 312 305 300 296 291 288 286
290 293 295 291 291 294 299 305 309 310 313 316 316 318 320 321 321 322 323 323 324 324 325 326 328 328 327 327 327 326 326 326 324 322 321 320 318 314 311 306 302 298 293
289 292 295 293 291 294 299 304 308 311 314 316 317 319 320 322 323 325 327 327 326 325 324 325 326 328 328 327 328 330 332 331 329 325 322 320 318 318 314 310 306 302 296
286 289 291 291 292 297 302 306 309 312 316 318 319 321 323 324 326 327 329 330 329 326 323 324 326 328 330 330 332 333 332 331 330 327 324 321 317 315 311 308 304 301 298
285 285 288 290 293 299 305 306 311 315 318 319 321 325 326 327 327 328 328 330 330 328 328 329 331 331 331 329 330 333 333 332 330 327 326 324 319 316 313 310 306 302 299
282 283 285 287 294 300 301 304 312 319 321 323 324 326 328 330 331 330 331 332 334 335 336 335 335 335 333 333 332 334 334 332 330 328 326 325 323 321 317 312 307 303 300
276 280 287 288 291 296 299 303 313 321 325 327 328 330 331 331 333 334 337 340 340 340 339 338 336 336 337 338 338 336 336 337 335 331 329 328 326 324 322 317 311 305 301
267 275 281 285 292 296 298 307 316 324 328 330 331 335 338 337 338 339 342 343 342 341 339 338 338 339 340 339 338 337 337 336 335 333 331 330 329 327 324 320 316 311 303
265 268 277 285 292 297 304 313 319 327 332 336 337 341 344 345 343 342 342 344 345 345 345 345 344 344 343 342 342 341 340 338 335 333 331 329 328 327 323 321 319 316 308
254 265 275 285 291 295 307 316 321 328 337 341 345 346 346 347 347 347 345 344 344 346 348 348 348 347 346 345 344 343 342 341 339 335 332 328 325 324 322 319 316 315 312
252 262 273 280 286 298 308 315 323 331 341 345 348 347 348 349 350 351 351 350 349 350 349 347 347 346 345 345 344 343 341 340 339 336 333 328 325 322 320 318 315 313 311
Height
5846 5845 5843 5843 5842 5841 5840 5838 5836 5834 5832 5831 5829 5827 5825 5823 5821 5818 5816 5813 5810 5808 5806 5803 5800 5798 5795 5793 5791 5788 5786 5785 5783 5782 5780 5779 5778 5777 5777 5777 5776 5777 5777
5841 5840 5838 5837 5837 5836 5835 5833 5830 5829 5828 5826 5824 5822 5820 5818 5815 5813 5810 5807 5804 5801 5798 5796 5793 5790 5788 5785 5783 5781 5779 5777 5775 5774 5773 5772 5771 5769 5769 5769 5768 5769 5769
5836 5835 5834 5833 5832 5830 5829 5828 5826 5825 5823 5821 5819 5817 5815 5813 5810 5807 5804 5801 5798 5795 5792 5789 5786 5783 5780 5778 5775 5773 5771 5769 5767 5766 5765 5764 5764 5763 5762 5761 5761 5761 5762
5831 5831 5830 5828 5827 5826 5824 5823 5821 5820 5818 5816 5815 5813 5810 5808 5805 5802 5798 5795 5791 5788 5785 5781 5778 5775 5772 5769 5767 5765 5763 5761 5759 5758 5757 5756 5756 5756 5756 5755 5754 5755 5755
5827 5826 5825 5824 5823 5821 5819 5818 5816 5815 5813 5811 5809 5807 5805 5802 5799 5796 5793 5789 5786 5782 5779 5775 5771 5768 5765 5762 5759 5757 5755 5753 5752 5750 5749 5748 5747 5747 5748 5748 5748 5748 5748
5822 5821 5820 5819 5819 5817 5815 5814 5812 5810 5809 5806 5804 5802 5800 5797 5794 5790 5787 5784 5781 5777 5773 5769 5765 5761 5758 5755 5752 5750 5748 5746 5744 5743 5741 5741 5740 5740 5740 5740 5741 5741 5742
5818 5817 5816 5815 5814 5812 5810 5808 5806 5805 5804 5802 5799 5797 5794 5791 5788 5785 5782 5779 5775 5771 5767 5763 5759 5755 5752 5749 5746 5743 5741 5739 5737 5736 5734 5734 5733 5732 5732 5733 5733 5734 5735
5814 5812 5811 5810 5809 5807 5806 5804 5802 5801 5799 5797 5795 5792 5789 5786 5783 5780 5777 5773 5770 5766 5762 5758 5754 5750 5746 5743 5740 5737 5735 5733 5731 5729 5728 5726 5726 5725 5725 5725 5726 5726 5727
5810 5808 5806 5805 5804 5803 5801 5800 5798 5797 5795 5792 5790 5787 5784 5781 5778 5774 5771 5768 5765 5761 5757 5753 5749 5745 5742 5738 5735 5732 5730 5727 5725 5723 5721 5720 5719 5718 5718 5718 5719 5719 5720
5805 5803 5802 5801 5800 5798 5797 5795 5794 5792 5790 5787 5785 5782 5779 5776 5773 5769 5766 5763 5759 5756 5752 5748 5744 5740 5737 5734 5730 5727 5724 5722 5719 5717 5715 5714 5713 5712 5711 5712 5712 5712 5712
5800 5799 5798 5797 5795 5794 5793 5791 5789 5787 5785 5782 5780 5777 5774 5771 5768 5765 5761 5758 5754 5750 5746 5743 5739 5736 5732 5729 5725 5722 5720 5717 5714 5712 5710 5708 5707 5706 5705 5705 5705 5705 5705
5796 5795 5794 5792 5791 5789 5788 5786 5784 5782 5780 5777 5775 5771 5769 5766 5763 5759 5756 5752 5749 5745 5741 5738 5734 5731 5728 5724 5721 5718 5715 5712 5710 5707 5705 5703 5701 5700 5699 5699 5698 5698 5697
5792 5791 5789 5788 5786 5785 5783 5782 5780 5777 5775 5772 5769 5766 5763 5760 5757 5754 5751 5747 5743 5740 5737 5733 5730 5727 5723 5720 5717 5714 5710 5708 5705 5702 5700 5698 5696 5695 5694 5693 5692 5691 5690
5788 5786 5785 5784 5782 5781 5779 5777 5775 5773 5770 5768 5765 5761 5758 5755 5752 5749 5746 5742 5739 5736 5733 5729 5726 5723 5719 5716 5713 5709 5707 5704 5701 5698 5695 5693 5691 5690 5688 5687 5686 5684 5683
5784 5782 5781 5779 5778 5776 5775 5773 5771 5769 5766 5763 5760 5757 5753 5750 5747 5744 5741 5738 5735 5732 5729 5726 5723 5719 5716 5713 5709 5706 5703 5700 5697 5695 5692 5689 5687 5685 5683 5681 5680 5678 5677
5779 5778 5776 5775 5774 5772 5770 5768 5766 5764 5762 5759 5756 5752 5749 5746 5743 5740 5736 5734 5732 5729 5726 5723 5720 5717 5713 5710 5706 5703 5700 5697 5694 5691 5688 5686 5683 5681 5678 5677 5675 5673 5672
5774 5773 5771 5770 5769 5767 5766 5765 5762 5760 5758 5755 5752 5749 5746 5743 5740 5737 5734 5732 5729 5726 5723 5720 5717 5714 5710 5707 5704 5700 5697 5694 5691 5688 5685 5682 5680 5677 5674 5672 5671 5669 5667
5769 5768 5766 5765 5764 5763 5762 5761 5758 5756 5753 5751 5748 5745 5742 5739 5737 5734 5732 5729 5726 5723 5721 5717 5714 5711 5708 5704 5701 5697 5694 5691 5688 5685 5682 5679 5677 5674 5672 5669 5667 5666 5664
5764 5763 5762 5761 5760 5759 5758 5756 5754 5752 5749 5747 5744 5742 5739 5736 5734 5732 5729 5727 5724 5721 5718 5715 5712 5709 5705 5702 5698 5695 5691 5688 5685 5682 5679 5676 5673 5671 5668 5666 5664 5662 5660
5759 5759 5758 5758 5757 5756 5754 5753 5751 5749 5746 5744 5741 5739 5736 5734 5731 5729 5727 5724 5721 5719 5716 5713 5709 5706 5703 5699 5696 5692 5689 5686 5682 5679 5676 5673 5670 5667 5665 5662 5660 5658 5656
5755 5755 5755 5754 5754 5752 5751 5750 5748 5746 5743 5741 5739 5736 5734 5731 5729 5727 5725 5722 5720 5717 5714 5711 5707 5704 5701 5697 5693 5690 5687 5683 5680 5676 5673 5670 5667 5664 5661 5658 5656 5654 5652
5751 5751 5751 5751 5750 5749 5748 5747 5745 5743 5741 5739 5736 5734 5731 5729 5727 5725 5723 5720 5718 5715 5712 5709 5705 5702 5698 5695 5691 5688 5684 5681 5677 5674 5671 5668 5664 5661 5657 5654 5651 5649 5647
5747 5747 5748 5747 5747 5746 5745 5744 5743 5741 5739 5737 5735 5732 5730 5728 5726 5724 5721 5719 5716 5713 5710 5707 5703 5700 5697 5693 5689 5686 5682 5678 5675 5671 5668 5665 5661 5658 5654 5651 5648 5645 5643
5744 5744 5744 5744 5744 5744 5743 5742 5740 5739 5737 5735 5733 5731 5729 5727 5725 5723 5720 5718 5715 5712 5709 5706 5702 5699 5695 5691 5687 5684 5680 5676 5672 5668 5665 5661 5657 5654 5650 5647 5644 5641 5638
5741 5742 5742 5742 5742 5741 5741 5740 5739 5737 5736 5734 5732 5730 5728 5726 5724 5722 5719 5717 5714 5711 5708 5705 5701 5697 5694 5690 5685 5681 5677 5673 5669 5665 5661 5657 5654 5650 5646 5643 5640 5637 5634
5739 5739 5739 5739 5740 5739 5739 5738 5737 5736 5735 5733 5731 5730 5728 5726 5724 5721 5719 5716 5713 5710 5707 5703 5700 5695 5691 5687 5683 5679 5675 5671 5666 5662 5658 5654 5649 5646 5642 5639 5635 5632 5629